星链-5499 (STARLINK-5499 )

导读 | 豆包AI

STARLINK-5499是美国SpaceX公司星链(Starlink)星座中的一颗互联网通信卫星,于2023年3月3日发射升空。作为星链低轨卫星互联网项目的组成部分,它运行在近地轨道,承担全球高速互联网接入服务的相关任务,帮助实现偏远地区网络覆盖、海事航空互联等应用,进一步扩充了星链星座的通信服务能力,推动全球卫星互联网组网进程。截至2026年3月,该卫星已稳定在轨运行三年。

基本信息
目录编号:
55764
目录名称:
STARLINK-5499
国际标识:
2023-028Z
轨道中心:
EARTH
卫星名称:
星链-5499
卫星全名:
星链-5499 (STARLINK-5499 )
卫星状态:
在轨 (已飞行1154 天)
发射日期:
2023-03-03 UTC
国别 :
美国 (US)
星等 :
--
轨道信息
数据来源 国际轨道数据 AOE轨道数据
星历时间 2026-04-30T12:29:33+0800
9小时前
查看轨道信息
2026-04-28T17:00:00+0800
2天前
查看轨道信息
半长轴 6950.18km 6950.192km
偏心率 0.0002977 0.0003016
轨道倾角 70.001° 69.998°
近地点辐角 254.416° 264.166°
升交点赤经 94.750° 99.316°
平近点角 105.667° 43.761°
近地点 569.973km 569.958km
远地点 574.113km 574.152km
周期 96.107分钟 96.107分钟
每日圈数 14.983344 14.983304
详细信息
固有亮度:
5
最大亮度:
2.5
卫星平台:
Starlink v1.5
覆盖范围:
全球
运营商:
太空探索技术公司
运营商所在国:
美国
制造商(研发单位):
太空探索技术公司
制造商所在国:
美国
使用方式:
暂无
卫星简介
星链(Starlink)计划是由太空探索技术公司(SpaceX)提出的一个巨型低轨卫星互联网星座项目,计划在2019年至2024年间在太空搭建由约1.2万颗卫星组成的“星链”网络,其中1584颗将部署在地球上空550千米处的近地轨道,并从2020年开始工作。该卫星仍在工作。
2D轨道图
3D轨道图
轨道高度分析图
轨道倾角分析图
轨道综合分析图
查看轨道综合分析图